Starlink 5697

operational
NORAD ID: 55589 Int'l Des: 2023-020 Owner: SPXS Country: US Constellation: starlink
LEOCIRCULAR

Über Starlink 5697

Beschreibung wird geladen...

Live-Position

3D-Globus wird geladen...

Nächste Überflüge

Höhenverlauf

Altitude vs Time

uPlot chart will show altitude changes over time

Zweizeiliger Elementsatz

1 55589U 23020W 25354.20146559 .00000295 00000-0 36936-4 0 9997
2 55589 43.0039 76.4350 0001363 275.5378 84.5309 15.02529411156964
Epoch: 20. Dez. 2025 • Age: 7 hours

Aktueller Status

Höhe 563.2 km
Geschwindigkeit 7.58 km/s
Subsatellitenpunkt -20.12°S, 6.23°E
Startdatum 12. Feb. 2023
Alter 2.8 years
Typ internet

Technische Details

Klassifizierung Payload
Masse 305.00 kg
Trockenmasse 290.00 kg
Gesamtmasse 305.00 kg
Länge 0.20 m
Durchmesser 2.80 m
Spannweite 9.00 m
Form Box + pan
Hersteller SPXS
Bus-Typ Starlink
Phasenstatus In Orbit
Besitzer/Staat SPXS/US

Große Konstellationen

Loading constellations...